Flag for Mexico

Past Weather in 19°37'14.4"N, 99°00'51.3"W, Mexico — Yesterday and Last 2 Weeks

Now
63 °F

Mostly cloudy.


Feels Like: 63 °F
Forecast: 73 / 58 °F
Wind: 5 mph from East

Location: Mexico City / Licenci
Current Time: Sep 28, 2020 at 1:10:11 am
Latest Report: Sep 27, 2020 at 11:46 pm
Visibility: 10 mi
Pressure30.28 "Hg
Humidity: 83%
Dew Point: 57 °F
Location of 19°37'14.4"N, 99°00'51.3"WLocation

Past Weather in 19°37'14.4"N, 99°00'51.3"W — Graph

°F

19°37'14.4"N, 99°00'51.3"W Temperature Yesterday

Maximum temperature yesterday: 79 °F (at 3:45 pm)
Minimum temperature yesterday: 55 °F (at 7:45 am)
Average temperature yesterday: 66 °F

High & Low Weather Summary for the Past Weeks

 TemperatureHumidityPressure
High79 °F (Sep 27, 3:45 pm)100% (Sep 16, 8:29 pm)30.41 "Hg (Sep 16, 8:29 pm)
Low54 °F (Sep 14, 7:47 am)25% (Sep 23, 3:51 pm)29.60 "Hg (Sep 27, 3:45 pm)
Average64 °F68%30.17 "Hg
* Reported Sep 12 11:41 pm — Sep 27 11:46 pm, 19°37'14.4"N, 99°00'51.3"W. Weather by CustomWeather, © 2020

Note: Actual official high and low records may vary slightly from our data, if they occured in-between our weather recording intervals... More about our weather records

19°37'14.4"N, 99°00'51.3"W Weather History for the Previous 24 Hours

Scroll right to see more
 ConditionsComfort  
Time TempWeatherWind HumidityBarometerVisibility
11:46 pm
Sun, Sep 27
63 °FMostly cloudy.5 mph83%30.28 "Hg10 mi
10:46 pm63 °FMostly cloudy.5 mph83%30.29 "Hg10 mi
9:45 pm61 °FPartly cloudy.3 mph83%29.80 "Hg8 mi
8:57 pm61 °FOvercast.9 mph88%30.24 "Hg7 mi
8:33 pm61 °FLight rain. Mostly cloudy.7 mph88%30.23 "Hg7 mi
8:01 pm64 °FLight rain. Mostly cloudy.6 mph73%30.21 "Hg8 mi
6:46 pm68 °FRain. Mostly cloudy.12 mph64%29.70 "Hg7 mi
6:17 pm70 °FThunderstorms. Mostly cloudy.12 mph64%30.17 "Hg7 mi
5:45 pm68 °FLight rain. Mostly cloudy.10 mph64%30.14 "Hg8 mi
5:20 pm70 °FLight rain. Mostly cloudy.14 mph53%30.14 "Hg8 mi
5:09 pm73 °FRain. Broken clouds.12 mph47%30.14 "Hg9 mi
4:45 pm77 °FRain. Broken clouds.9 mph34%30.13 "Hg9 mi
3:45 pm79 °FRain. Broken clouds.9 mph30%29.60 "Hg9 mi
2:45 pm77 °FBroken clouds.8 mph30%30.19 "Hg8 mi
1:45 pm75 °FScattered clouds.8 mph34%30.23 "Hg8 mi
12:47 pm75 °FScattered clouds.3 mph41%29.75 "Hg8 mi
12:33 pm73 °FScattered clouds.5 mph44%30.28 "Hg8 mi
11:45 am70 °FScattered clouds.6 mph50%30.30 "Hg7 mi
10:45 am68 °FPassing clouds.3 mph60%30.31 "Hg6 mi
10:09 am66 °FPassing clouds.3 mph64%30.31 "Hg6 mi
9:45 am63 °FPassing clouds.5 mph77%29.85 "Hg6 mi
8:45 am59 °FPassing clouds.No wind82%30.29 "Hg6 mi
7:45 am55 °FScattered clouds.5 mph88%30.29 "Hg6 mi
6:54 am57 °FPartly cloudy.5 mph88%29.85 "Hg7 mi
5:44 am57 °FPassing clouds.5 mph88%30.27 "Hg6 mi
4:43 am57 °FPassing clouds.6 mph82%30.26 "Hg8 mi
3:43 am59 °FPassing clouds.No wind77%29.78 "Hg8 mi
2:41 am59 °FClear.No wind82%30.29 "Hg8 mi
1:44 am59 °FClear.No wind82%30.30 "Hg8 mi
Weather by CustomWeather, © 2020

See weather overview